Tracking 29777 objects as of 7-Oct-2024
HD Live streaming from Space Station
objects crossing your sky now

DELTA 1 DEB

Track DELTA 1 DEB now!
10-day predictions


NORAD ID: 12540
Int'l Code: 1976-077DV
Perigee: 1,450.5 km
Apogee: 1,516.3 km
Inclination: 102.4 °
Period: 115.5 minutes
Semi major axis: 7854 km
RCS: 0.0402 m2 (small)
Launch date: July 29, 1976
Source: United States (US)
Launch site: AIR FORCE WESTERN TEST RANGE (AFWTR)

Note: This is SATELLITE DEBRIS
Your satellite tracking list
Your tracking list is empty




NASA's NSSDC Master Catalog

Two Line Element Set (TLE):
1 12540U 76077DV  24280.55441478  .00000228  00000-0  18747-2 0  9994
2 12540 102.4280  10.4511 0041875  56.4419 316.0088 12.47183076 23625
Source of the keplerian elements: AFSPC